COSMOS 2251 DEB, 34620

Orbit data source: Space-Track

COSMOS 2251 DEB, 34620 is space debris in LEO originally from a launch on Wed, 16 Jun 1993 UTC launched from the Plesetsk Missile And Space Complex (PKMTR). The debris from Iridium 33, an American commercial communications satellite, has been tracked extensively since its accidental collision with the defunct Russian satellite Cosmos 2251 in 2009. This event, occurring at high speed in low Earth orbit (LEO), generated thousands of pieces of space debris, significantly increasing the risk of further collisions. The Iridium 33 debris cloud has impacted space traffic management and orbital debris mitigation strategies, making it a subject of ongoing study in space situational awareness.

Loading next visibility...
Identifier
34620, 1993-036WR
Orbit
LEO
Country
Flag of CISCIS
Related business
Manufacturer
Unknown
Mission
Spacecraft
Bus & Motor
Unknown
Mass
Unknown
Launch date (UTC)
1993-06-16 (33 years ago)
Launch vehicle
Unknown
Launch site
Plesetsk Missile And Space Complex (PKMTR)
Object type
Payload
Rocket body
Debris
Shape & HBR
Unknown shape, 0.1 m
Radar Cross Section
Small (<0.1 m²)

Expand to show TLE details & history
Last TLE update: 20 hours ago

TLE from 20 hours ago
0 COSMOS 2251 DEB
1 34620U 93036WR  25354.27442756  .00005023  00000-0  12728-2 0  9994
2 34620  74.0505 205.4136 0079941 240.1215 119.1985 14.49205993869366
Epoch: 2025-12-20T06:35Z
TLE epoch observation values (Epoch: 2025-12-20T06:35:10.541Z)
Latitude
-0.00008°
Longitude
17.51608°
Altitude
758.933 km
Speed
7.46 km/s
True Right ascension
13h 41m 39s
True Declination
0° 00' 00"
Sunlit
Object was in daylight at epoch
Visualization orbit readout
Latitude
Unknown
Longitude
Unknown
Altitude
Unknown
Speed
Unknown
Apparent Right ascension
Unknown
Apparent Declination
Unknown
Sunlit
N/A
Visualization observer readout
Local Sidereal Time
01:17:59
Azimuth
Unknown
Elevation
Unknown
Doppler factor
Unknown
Orbital elements
Apogee altitude
782.641 km
Perigee altitude
669.061 km
Semi-major axis
7,103.988 km
Eccentricity
0.00799
Inclination
74.0505°
RAAN
205.4136°
Arg. of periapsis
240.1215°
True anomaly
119.99425°
Mean anomaly
119.1985°
Eccentric anomaly
119.59677°
Mean motion
3.62485 °/min
Orbital period
99.31 mins
BSTAR
0.0012728
Loading maneuver chart data...
Computing Atmospheric mass density...

Documentation

Showing up to 5 results
|